Location: Krakow
(50.0212°N, 19.9423°E)
Time: 20:29:05
(UTC+02:00)

NOAA 15 - Visible Passes

Search period start: 22 April 2024 00:00
Search period end: 02 May 2024 00:00
Orbit: 795 x 811 km, 98.6° (Epoch: 22 April)

Date Brightness Start Highest point End Pass type
(mag) Time Alt. Az. Time Alt. Az. Time Alt. Az.
22 Apr 6.7 20:20:14 10° SSW 20:24:47 29° W 20:29:21 10° NW visible
24 Apr 7.6 21:11:57 10° WSW 21:13:49 12° W 21:15:43 10° WNW visible
25 Apr 7.2 20:44:02 10° SW 20:47:46 19° W 20:51:32 10° NW visible
28 Apr 7.5 21:08:38 10° WSW 21:10:49 12° W 21:13:01 10° WNW visible
29 Apr 7.2 20:40:55 10° SW 20:44:47 20° W 20:48:39 10° NW visible
